Tiempo cada hora Multan

Hoy, 29 Octubre, Jueves

Tiempo Temperatura Precipitaciones Viento Presión Humedad
00:00 +23°C° 0 mm 1 mps 748 mmHg 21%
01:00 +23°C° 0 mm 1 mps 748 mmHg 21%
02:00 +22°C° 0 mm 1 mps 748 mmHg 22%
03:00 +22°C° 0 mm 1 mps 748 mmHg 23%
04:00 +21°C° 0 mm 1 mps 748 mmHg 24%
05:00 +18°C° 0 mm 0 mps 748 mmHg 25%
06:00 +22°C° 0 mm 1 mps 749 mmHg 23%
07:00 +23°C° 0 mm 1 mps 749 mmHg 21%
08:00 +25°C° 0 mm 1 mps 750 mmHg 18%
09:00 +28°C° 0 mm 1 mps 750 mmHg 16%
10:00 +30°C° 0 mm 2 mps 750 mmHg 14%
11:00 +34°C° 0 mm 2 mps 750 mmHg 11%
12:00 +35°C° 0 mm 2 mps 749 mmHg 11%
13:00 +36°C° 0 mm 2 mps 749 mmHg 10%
14:00 +37°C° 0 mm 2 mps 748 mmHg 9%
15:00 +35°C° 0 mm 2 mps 748 mmHg 10%
16:00 +34°C° 0 mm 3 mps 748 mmHg 11%
17:00 +33°C° 0 mm 3 mps 748 mmHg 12%
18:00 +30°C° 0 mm 3 mps 748 mmHg 13%
19:00 +28°C° 0 mm 3 mps 749 mmHg 14%
20:00 +26°C° 0 mm 3 mps 749 mmHg 16%
21:00 +25°C° 0 mm 2 mps 749 mmHg 17%
22:00 +24°C° 0 mm 1 mps 749 mmHg 19%
23:00 +23°C° 0 mm 1 mps 749 mmHg 20%

Mañana, 30 Octubre, Viernes

Tiempo Temperatura Precipitaciones Viento Presión Humedad
00:00 +22°C° 0 mm 1 mps 749 mmHg 21%
01:00 +22°C° 0 mm 1 mps 749 mmHg 21%
02:00 +22°C° 0 mm 1 mps 749 mmHg 21%
03:00 +22°C° 0 mm 1 mps 749 mmHg 21%
04:00 +22°C° 0 mm 1 mps 749 mmHg 21%
05:00 +21°C° 0 mm 2 mps 749 mmHg 21%
06:00 +23°C° 0 mm 2 mps 750 mmHg 20%
07:00 +24°C° 0 mm 2 mps 750 mmHg 18%
08:00 +25°C° 0 mm 2 mps 751 mmHg 16%
09:00 +28°C° 0 mm 2 mps 751 mmHg 14%
10:00 +31°C° 0 mm 3 mps 751 mmHg 12%
11:00 +34°C° 0 mm 3 mps 751 mmHg 10%
12:00 +35°C° 0 mm 3 mps 750 mmHg 10%
13:00 +36°C° 0 mm 3 mps 750 mmHg 9%
14:00 +37°C° 0 mm 4 mps 749 mmHg 9%
15:00 +35°C° 0 mm 3 mps 749 mmHg 9%
16:00 +34°C° 0 mm 3 mps 749 mmHg 10%
17:00 +32°C° 0 mm 2 mps 748 mmHg 11%
18:00 +30°C° 0 mm 2 mps 749 mmHg 13%
19:00 +28°C° 0 mm 2 mps 749 mmHg 14%
20:00 +26°C° 0 mm 2 mps 750 mmHg 16%
21:00 +25°C° 0 mm 2 mps 750 mmHg 16%
22:00 +25°C° 0 mm 2 mps 750 mmHg 17%
23:00 +24°C° 0 mm 2 mps 750 mmHg 17%

Pasado mañana, 31 Octubre, Sábado

Tiempo Temperatura Precipitaciones Viento Presión Humedad
00:00 +24°C° 0 mm 2 mps 750 mmHg 18%
01:00 +23°C° 0 mm 2 mps 750 mmHg 19%
02:00 +22°C° 0 mm 1 mps 750 mmHg 20%
03:00 +21°C° 0 mm 1 mps 750 mmHg 21%
04:00 +21°C° 0 mm 1 mps 750 mmHg 22%
05:00 +20°C° 0 mm 1 mps 750 mmHg 23%
06:00 +22°C° 0 mm 1 mps 750 mmHg 20%
07:00 +23°C° 0 mm 1 mps 751 mmHg 18%
08:00 +23°C° 0 mm 0 mps 751 mmHg 16%
09:00 +26°C° 0 mm 0 mps 751 mmHg 14%
10:00 +29°C° 0 mm 0 mps 751 mmHg 11%
11:00 +32°C° 0 mm 0 mps 751 mmHg 9%
12:00 +34°C° 0 mm 1 mps 750 mmHg 9%
13:00 +35°C° 0 mm 1 mps 750 mmHg 8%
14:00 +37°C° 0 mm 2 mps 749 mmHg 8%
15:00 +35°C° 0 mm 2 mps 749 mmHg 8%
16:00 +34°C° 0 mm 2 mps 749 mmHg 9%
17:00 +32°C° 0 mm 2 mps 748 mmHg 10%
18:00 +30°C° 0 mm 2 mps 749 mmHg 11%
19:00 +28°C° 0 mm 2 mps 749 mmHg 12%
20:00 +26°C° 0 mm 2 mps 749 mmHg 14%
21:00 +25°C° 0 mm 2 mps 749 mmHg 15%
22:00 +24°C° 0 mm 2 mps 749 mmHg 16%
23:00 +23°C° 0 mm 1 mps 749 mmHg 17%

1 Noviembre, Domingo

Tiempo Temperatura Precipitaciones Viento Presión Humedad
00:00 +22°C° 0 mm 1 mps 749 mmHg 17%
01:00 +22°C° 0 mm 1 mps 749 mmHg 17%
02:00 +21°C° 0 mm 1 mps 749 mmHg 18%
03:00 +21°C° 0 mm 1 mps 749 mmHg 19%
04:00 +20°C° 0 mm 1 mps 749 mmHg 19%
05:00 +20°C° 0 mm 1 mps 749 mmHg 20%
06:00 +21°C° 0 mm 1 mps 750 mmHg 18%
07:00 +23°C° 0 mm 1 mps 750 mmHg 16%
08:00 +24°C° 0 mm 1 mps 751 mmHg 15%
09:00 +27°C° 0 mm 1 mps 751 mmHg 13%
10:00 +30°C° 0 mm 1 mps 751 mmHg 11%
11:00 +33°C° 0 mm 1 mps 751 mmHg 8%
12:00 +34°C° 0 mm 1 mps 750 mmHg 7%
13:00 +36°C° 0 mm 2 mps 749 mmHg 7%
14:00 +37°C° 0 mm 2 mps 749 mmHg 6%
15:00 +35°C° 0 mm 2 mps 749 mmHg 6%
16:00 +34°C° 0 mm 2 mps 748 mmHg 7%
17:00 +31°C° 0 mm 2 mps 748 mmHg 7%
18:00 +29°C° 0 mm 2 mps 748 mmHg 9%
19:00 +27°C° 0 mm 2 mps 749 mmHg 10%
20:00 +26°C° 0 mm 2 mps 749 mmHg 12%
21:00 +25°C° 0 mm 2 mps 749 mmHg 12%
22:00 +24°C° 0 mm 2 mps 749 mmHg 13%
23:00 +23°C° 0 mm 1 mps 749 mmHg 14%

2 Noviembre, Lunes

Tiempo Temperatura Precipitaciones Viento Presión Humedad
00:00 +22°C° 0 mm 1 mps 749 mmHg 14%
01:00 +21°C° 0 mm 1 mps 749 mmHg 14%
02:00 +21°C° 0 mm 1 mps 749 mmHg 14%
03:00 +21°C° 0 mm 1 mps 749 mmHg 14%
04:00 +20°C° 0 mm 1 mps 749 mmHg 14%
05:00 +20°C° 0 mm 1 mps 749 mmHg 14%
06:00 +22°C° 0 mm 1 mps 749 mmHg 13%
07:00 +24°C° 0 mm 1 mps 750 mmHg 12%
08:00 +25°C° 0 mm 1 mps 750 mmHg 11%
09:00 +28°C° 0 mm 1 mps 750 mmHg 9%
10:00 +31°C° 0 mm 1 mps 751 mmHg 8%
11:00 +34°C° 0 mm 1 mps 751 mmHg 6%
12:00 +35°C° 0 mm 1 mps 750 mmHg 6%
13:00 +36°C° 0 mm 1 mps 749 mmHg 6%
14:00 +36°C° 0 mm 1 mps 749 mmHg 5%
15:00 +34°C° 0 mm 1 mps 748 mmHg 6%
16:00 +33°C° 0 mm 1 mps 748 mmHg 7%
17:00 +31°C° 0 mm 1 mps 748 mmHg 8%
18:00 +29°C° 0 mm 1 mps 748 mmHg 9%
19:00 +27°C° 0 mm 1 mps 748 mmHg 10%
20:00 +26°C° 0 mm 2 mps 749 mmHg 11%
21:00 +25°C° 0 mm 2 mps 749 mmHg 12%
22:00 +24°C° 0 mm 2 mps 749 mmHg 12%
23:00 +23°C° 0 mm 2 mps 749 mmHg 13%

3 Noviembre, Martes

Tiempo Temperatura Precipitaciones Viento Presión Humedad
00:00 +21°C° 0 mm 2 mps 748 mmHg 12%
01:00 +21°C° 0 mm 2 mps 748 mmHg 12%
02:00 +20°C° 0 mm 2 mps 748 mmHg 12%
03:00 +20°C° 0 mm 2 mps 748 mmHg 12%
04:00 +19°C° 0 mm 2 mps 748 mmHg 11%
05:00 +19°C° 0 mm 2 mps 748 mmHg 11%
06:00 +20°C° 0 mm 2 mps 748 mmHg 10%
07:00 +21°C° 0 mm 2 mps 749 mmHg 9%
08:00 +23°C° 0 mm 2 mps 749 mmHg 8%
09:00 +26°C° 0 mm 2 mps 749 mmHg 7%
10:00 +29°C° 0 mm 2 mps 749 mmHg 5%
11:00 +32°C° 0 mm 2 mps 749 mmHg 4%
12:00 +35°C° 0 mm 2 mps 749 mmHg 3%
13:00 +36°C° 0 mm 2 mps 748 mmHg 3%
14:00 +37°C° 0 mm 2 mps 747 mmHg 3%
15:00 +35°C° 0 mm 2 mps 747 mmHg 3%
16:00 +32°C° 0 mm 2 mps 747 mmHg 4%
17:00 +30°C° 0 mm 2 mps 747 mmHg 4%
18:00 +28°C° 0 mm 2 mps 747 mmHg 5%
19:00 +27°C° 0 mm 2 mps 747 mmHg 5%
20:00 +25°C° 0 mm 2 mps 747 mmHg 6%
21:00 +24°C° 0 mm 1 mps 747 mmHg 7%
22:00 +22°C° 0 mm 1 mps 747 mmHg 8%
23:00 +21°C° 0 mm 1 mps 747 mmHg 9%
Mostrar más

Necesitamos Su Consentimiento

Meteoprog y nuestros Proveedores de Servicios pueden almacenar y acceder a sus datos personales como cookies, identificadores de dispositivo u otras tecnologías similares de su dispositivo y procesar dichos datos para personalizar contenido y anuncios, además de ofrecer funciones de redes sociales y analizar el tráfico.

  • Almacenar y/o acceder a información en su dispositivo

    Se puede almacenar o acceder a cookies, identificadores de dispositivo u otra información de su dispositivo para los fines anteriormente indicados.

  • Anuncios y contenido personalizados, medición de anuncios y contenido, percepciones del público, y desarrollo de productos

    Los anuncios y el contenido pueden personalizarse en base a su perfil. Se pueden añadir más datos para personalizar mejor los anuncios y contenidos. Se puede medir el rendimiento de los anuncios y contenidos. Se puede obtener la percepción sobre el público que ha visto los anuncios y contenidos. Dichos datos pueden usarse para desarrollar o mejorar la experiencia del usuario, sistemas y software.

Al hacer clic en ‘Estoy De Acuerdo’ usted permitirá el uso de las cookies, identificadores de dispositivo, balizas web u otras tecnologías similares indicadas. Su configuración puede cambiarse desde el navegador de su dispositivo.

Para ciertos fines, los intereses legítimos pueden ser considerados por encima del consentimiento. Puede leer más sobre ello en nuestra Política de Privacidad y Cookies.